sat.trackr.live / text

‹ back to catalog

GSAT0233 (GALILEO 33)

NORAD 67160 · 2025-302A

PAYLOAD ACTIVE UNKNOWN

§ Identity

Operator
Country
ESA
Launch date
2025-12-17
Launch site
FRGUI
Launch vehicle
Mass (kg)
RCS (m²)

Purposes: earth_obs, nav

External: N2YO · Heavens-Above · Gunter

§ Orbital elements

Epoch: 2026-05-21T19:50:23.436960Z

Period
844.70 min
Inclination
54.3194°
Eccentricity
0.0001476
Mean motion
1.70474125 rev/d
Perigee alt
23,217.8 km
Apogee alt
23,226.5 km
Semi-major
29,600.3 km
B*
0.0000e+0
RAAN
102.8809°
Arg perigee
247.4028°
Mean anomaly
291.0151°
Rev number
267

§ Raw data

GSAT0233 (GALILEO 33)1 67160U 25302A   26141.82666015  .00000020  00000+0  00000+0 0  99902 67160  54.3194 102.8809 0001476 247.4028 291.0151  1.70474125  2676

JSON: /api/v1/satellites/67160 · /tle

For live sub-satellite position, see the globe view (requires WebGL).

§ Visibility from observer

Set your observer location to see the next 7 days of passes ≥ 10°. The values pass through the URL so the page stays shareable.

No JS? Fill the form by hand. The geolocation button needs JavaScript.